This is the latest recevied weather packets stored in our database for station/object NN5DX-13. If no packets are shown the sender has not sent any weather packets the latest 10 day(s).
| Time | Temp. | Humidity | Pressure | Rain* | Wind** | Luminosity | Snow |
|---|---|---|---|---|---|---|---|
| 1777742418 | 17.22° C | 50% | 1024.7 hPa | 0 mm | - | - | - |
| 1777742117 | 16.67° C | 50% | 1024.6 hPa | 0 mm | - | - | - |
| 1777741818 | 17.22° C | 50% | 1024.5 hPa | 0 mm | - | - | - |
| 1777741517 | 17.22° C | 49% | 1024.6 hPa | 0 mm | - | - | - |
| 1777741217 | 16.67° C | 51% | 1024.5 hPa | 0 mm | - | - | - |
| 1777740917 | 16.67° C | 51% | 1024.6 hPa | 0 mm | - | - | - |
| 1777740617 | 16.67° C | 51% | 1024.7 hPa | 0 mm | - | - | - |
| 1777740317 | 16.67° C | 49% | 1024.6 hPa | 0 mm | - | - | - |
| 1777740017 | 16.67° C | 50% | 1024.6 hPa | 0 mm | - | - | - |
| 1777739717 | 16.67° C | 52% | 1024.7 hPa | 0 mm | - | - | - |
| 1777739418 | 16.67° C | 51% | 1024.9 hPa | 0 mm | - | - | - |
| 1777739117 | 16.11° C | 53% | 1024.8 hPa | 0 mm | - | - | - |
| 1777738817 | 16.11° C | 54% | 1024.9 hPa | 0 mm | - | - | - |
| 1777738517 | 16.11° C | 54% | 1024.6 hPa | 0 mm | - | - | - |
| 1777738223 | 15.56° C | 56% | 1024.6 hPa | 0 mm | - | - | - |
| 1777737917 | 15° C | 55% | 1024.6 hPa | 0 mm | - | - | - |
| 1777737617 | 15.56° C | 55% | 1024.7 hPa | 0 mm | - | - | - |
| 1777737317 | 15.56° C | 55% | 1024.6 hPa | 0 mm | - | - | - |
| 1777737018 | 15° C | 57% | 1024.7 hPa | 0 mm | - | - | - |
| 1777736717 | 15° C | 57% | 1024.6 hPa | 0 mm | - | - | - |
| 1777736418 | 15° C | 57% | 1024.6 hPa | 0 mm | - | - | - |
| 1777736117 | 15° C | 57% | 1024.5 hPa | 0 mm | - | - | - |
| 1777735817 | 14.44° C | 57% | 1024.3 hPa | 0 mm | - | - | - |
| 1777735517 | 14.44° C | 57% | 1024.3 hPa | 0 mm | - | - | - |
| 1777735217 | 14.44° C | 57% | 1024.4 hPa | 0 mm | - | - | - |
* Rain latest hour (hover to see other rain measurements)
** Current wind speed in m/s (hover to see current wind gust speed)